カタログに戻る

CZ-6A DEB

運用中SSO
NORAD 54621·DEBRIS·🇨🇳 China

打ち上げ Nov 11, 2022 から Taiyuan Satellite Launch Center

Loading…

次のパス (今後24時間)

TLE

最新Source: Space-Track

元期: Sep 13, 2026, 22:02 UTC

1 54621U 22151NX  26256.91870464  .00000592  00000-0  36015-3 0  9993
2 54621  98.8540 248.9918 0060198  91.2244 269.5824 14.09092611195959

AllMySatでCZ-6A DEBをリアルタイム追跡

Download on the App Store